Location: Street
(51.1247°N, 2.7429°W)
Time: 04:07:41
(UTC+00:00)

Transit 2A Rocket - Pass Details

Date: 05 December 2020
Orbit: 592 x 911 km, 66.7° (Epoch: 16 January)

Event Time Altitude Azimuth Distance (km) Brightness Sun altitude
Exits shadow 06:11:08 11° 338° (NNW) 2,230 7.0 -15.9°
Maximum altitude 06:14:09 16° 15° (NNE) 1,812 6.9 -15.4°
Drops below altitude 10° 06:17:14 10° 54° (NE) 2,148 7.8 -14.9°
Sets 06:20:19 0° 76° (ENE) 2,999 9.1 -14.5°
